SCP
0 0 0 0 0 0 0 0 0 0 0 0 0 0 0 0 0 0 0 0 0 0 0 0 0 0 0 0 0 0 0 0 0 0 0 0 0 0 0 0 0 0 0
0 0 0 0 0 0 0 0 0 0 0 0 0 0 0 0 0 0 0 0 0 0 0 0 0 0 0 0 0 0 0 0 0 0 0 0 0 0 0 0 0 0 0
0 0 0 0 0 0 0 0 0 0 0 0 0 0 0 0 0 0 0 0 0 0 0 0 0 0 0 0 0 0 0 0 0 0 0 0 0 0 0 0 0 0 0
0 0 0 0 0 0 0 0 0 0 0 0 0 0 0 0 0 0 0 0 0 0 0 0 0 0 0 0 0 0 0 0 0 0 0 0 0 0 0 0 0 0 0
0 0 0 0 0 0 0 0 0 0 0 0 0 0 0 0 0 0 0 0 0 0 0 0 0 0 0 0 0 0 0 0 0 0 0 0 0 0 0 0 0 0 0
0 0 0 0 0 0 0 0 0 0 0 0 0 0 0 0 0 0 0 0 0 0 0 0 0 0 0 0 0 0 0 0 0 0 0 0 0 0 0 0 0 0 0
0 0 0 0 0 0 0 0 0 0 0 0 0 0 0 0 0 0 0 0 0 0 0 0 0 0 0 0 0 0 0 0 0 0 0 0 0 0 0 0 0 0 0
0 0 0 0 0 0 0 0 0 0 0 0 0 0 0 0 0 0 0 0 0 0 0 0 0 0 0 0 0 0 0 0 0 0 0 0 0 0 0 0 0 0 0
0 0 0 0 0 0 0 0 0 0 0 0 0 0 0 0 0 0 0 0 0 0 0 0 0 0 0 0 0 0 0 0 0 0 0 0 0 0 0 0 0 0 0
0 0 0 0 0 0 0 0 0 0 0 0 0 0 0 0 0 0 0 0 0 0 0 0 0 0 0 0 0 0 0 0 0 0 0 0 0 0 0 0 0 0 0
0 0 0 0 0 0 0 0 0 0 0 0 0 0 0 0 0 0 0 0 0 0 0 0 0 0 0 0 0 0 0 0 0 0 0 0 0 0 0 0 0 0 0
0 0 0 0 0 0 0 0 0 0 0 0 0 0 0 0 0 0 0 0 0 0 0 0 0 0 0 0 0 0 0 0 0 0 0 0 0 0 0 0 0 0 0
0 0 0 0 0 0 0 0 0 0 0 0 0 0 0 0 0 0 0 0 0 0 0 0 0 0 0 0 0 0 0 0 0 0 0 0 0 0 0 0 0 0 0
0 0 0 0 0 0 0 0 0 0 0 0 0 0 0 0 0 0 0 0 0 0 0 0 0 0 0 0 0 0 0 0 0 0 0 0 0 0 0 0 0 0 0
0 0 0 0 0 0 0 0 0 0 0 0 0 0 0 0 0 0 0 0 0 0 0 0 0 0 0 0 0 0 0 0 0 0 0 0 0 0 0 0 0 0 0
0 0 0 0 0 0 0 0 0 0 0 0 0 0 0 0 0 0 0 0 0 0 0 0 0 0 0 0 0 0 0 0 0 0 0 0 0 0 0 0 0 0 0
0 0 0 0 0 0 0 0 0 0 0 0 0 0 0 0 0 0 0 0 0 0 0 0 0 0 0 0 0 0 0 0 0 0 0 0 0 0 0 0 0 0 0
0 0 0 0 0 0 0 0 0 0 0 0 0 0 0 0 0 0 0 0 0 0 0 0 0 0 0 0 0 0 0 0 0 0 0 0 0 0 0 0 0 0 0
0 0 0 0 0 0 0 0 0 0 0 0 0 0 0 0 0 0 0 0 0 0 0 0 0 0 0 0 0 0 0 0 0 0 0 0 0 0 0 0 0 0 0
0 0 0 0 0 0 0 0 0 0 0 0 0 0 0 0 0 0 0 0 0 0 0 0 0 0 0 0 0 0 0 0 0 0 0 0 0 0 0 0 0 0 0
0 0 0 0 0 0 0 0 0 0 0 0 0 0 0 0 0 0 0 0 0 0 0 0 0 0 0 0 0 0 0 0 0 0 0 0 0 0 0 0 0 0 0
0 0 0 0 0 0 0 0 0 0 0 0 0 0 0 0 0 0 0 0 0 0 0 0 0 0 0 0 0 0 0 0 0 0 0 0 0 0 0 0 0 0 0
0 0 0 0 0 0 0 0 0 0 0 0 0 0 0 0 0 0 0 0 0 0 0 0 0 0 0 0 0 0 0 0 0 0 0 0 0 0 0 0 0 0 0
0 0 0 0 0 0 0 0 0 0 0 0 0 0 0 0 0 0 0 0 0 0 0 0 0 0 0 0 0 0 0 0 0 0 0 0 0 0 0 0 0 0 0
0 0 0 0 0 0 0 0 0 0 0 0 0 0 0 0 0 0 0 0 0 0 0 0 0 0 0 0 0 0 0 0 0 0 0 0 0 0 0 0 0 0 0
0 0 0 0 0 0 0 0 0 0 0 0 0 0 0 0 0 0 0 0 0 0 0 0 0 0 0 0 0 0 0 0 0 0 0 0 0 0 0 0 0 0 0
Wind_Speed_500mb
28 28 30 37 38 38 37 38 40 42 45 46 45 47 55 53 50 49 51 49 50 50 52 52 51 52 54 53 54 57 57 57 57 60 65 66 63 60 60 62 65 67 68
36 36 36 42 42 40 39 39 40 42 44 47 47 48 48 49 48 48 51 55 62 62 60 56 54 55 58 59 63 66 67 66 64 69 68 66 65 67 64 65 71 72 73
39 34 40 43 41 37 36 37 38 40 41 44 47 51 56 60 58 54 53 53 54 57 59 59 57 55 55 57 62 63 61 65 70 70 64 33 37 43 41 44 51 58 60
41 38 39 40 39 37 37 37 40 44 47 48 49 49 48 48 49 51 55 56 57 56 54 53 52 51 47 42 38 39 48 56 61 62 65 69 68 66 53 46 42 47 54
42 42 38 35 32 31 31 35 38 41 44 47 46 50 52 52 52 51 49 47 49 54 56 56 56 53 48 44 41 41 40 39 38 42 45 51 55 54 63 60 53 55 60
47 43 38 33 29 29 31 30 29 28 26 24 23 23 27 34 40 45 48 50 53 54 54 51 47 50 47 47 46 45 45 40 35 45 43 46 47 47 50 57 61 61 61
58 50 40 32 28 25 24 23 22 22 21 20 20 20 21 22 24 26 29 31 32 34 37 39 42 44 44 45 45 45 44 41 41 48 49 49 42 41 44 51 54 57 57
56 48 39 32 27 24 21 20 22 24 26 27 27 28 28 28 29 30 31 32 32 31 30 35 38 38 40 40 41 39 40 43 48 49 49 49 47 48 46 45 47 55 60
56 48 38 30 26 21 20 21 22 23 25 27 28 30 31 32 31 32 33 34 35 37 38 37 37 38 40 40 39 39 41 46 46 51 43 45 48 46 47 44 47 45 50
53 45 37 30 23 20 19 18 19 20 21 22 23 25 25 26 28 29 30 31 32 33 34 35 36 36 37 37 39 41 42 45 46 46 44 44 45 43 33 34 33 39 41
53 44 35 27 23 19 17 17 17 18 19 19 19 20 20 21 22 24 25 27 28 29 31 31 32 32 32 33 34 34 35 35 34 34 34 32 34 28 25 27 30 32 34
48 40 33 27 23 20 18 17 18 19 20 20 19 19 20 21 22 23 23 24 26 28 27 27 27 28 29 29 29 29 26 22 19 21 19 17 18 20 22 25 27 26 34
43 39 35 30 25 22 20 18 19 20 21 21 20 20 20 20 21 21 20 20 21 21 20 19 19 18 17 17 17 17 17 12 8 8 14 13 14 15 17 17 24 20 21
45 39 35 30 26 24 22 20 20 21 21 21 20 20 21 21 22 22 20 18 15 10 8 8 7 6 6 6 3 3 4 6 4 5 8 5 6 8 11 9 10 13 16
44 42 39 34 32 31 27 23 22 21 21 21 21 21 21 21 21 20 17 15 12 7 5 5 6 8 9 10 11 11 11 8 5 5 5 3 3 5 8 10 12 12 13
48 44 39 36 35 34 30 26 25 23 23 22 21 20 20 21 18 14 10 10 9 7 10 11 12 15 17 17 15 16 13 11 10 9 10 11 13 13 14 16 17 16 16
49 46 44 40 36 35 32 29 27 27 26 24 23 22 21 17 12 10 10 11 11 12 12 14 16 16 17 18 14 12 10 9 9 9 10 11 13 15 16 17 17 18 17
44 42 41 38 37 36 35 33 30 27 27 27 26 24 19 14 13 13 14 15 15 15 16 15 14 13 14 13 11 10 10 10 9 10 12 14 16 18 16 18 19 19 18
34 33 32 32 34 35 35 32 31 29 29 29 26 23 17 16 17 17 19 19 19 17 13 13 11 8 8 7 6 7 7 8 9 10 12 13 15 19 21 19 19 17 16
31 28 26 28 31 31 32 32 30 29 28 28 25 22 20 20 21 22 22 23 18 15 11 7 5 5 6 7 8 9 8 8 9 11 13 15 16 17 17 17 15 13 13
28 23 21 20 22 27 29 30 29 27 23 24 24 23 24 24 27 27 24 20 17 13 7 3 2 4 5 8 10 10 11 11 10 10 12 13 12 13 13 12 10 9 8
29 23 21 20 22 26 28 29 29 25 24 25 25 27 29 32 30 26 23 20 15 10 6 3 3 4 5 7 11 12 11 10 12 13 14 15 15 13 11 10 9 9 10
24 22 22 21 22 26 28 29 27 28 27 28 30 31 34 32 28 26 22 18 13 10 9 8 8 7 7 8 11 13 14 15 15 16 16 17 14 13 11 10 11 12 14
26 25 26 25 23 25 28 28 30 32 29 33 34 36 36 32 31 27 23 19 16 13 13 12 11 11 10 11 12 13 15 17 19 19 18 18 16 14 14 15 17 18 20
28 30 29 26 24 25 27 28 28 28 34 36 38 38 35 33 29 26 24 21 19 18 17 16 15 14 13 14 14 14 15 17 19 19 20 20 20 20 20 21 22 24 26
28 34 33 31 28 27 28 28 29 32 35 39 41 38 36 34 32 29 27 24 23 22 20 19 19 17 16 15 15 16 18 20 21 22 23 23 24 25 27 28 29 30 32
Wind_Direction_500mb
212 212 209 212 213 217 215 218 220 224 230 234 236 237 245 251 255 256 258 261 262 261 263 268 269 270 271 275 275 278 279 279 280 279 279 277 273 271 273 278 279 281 284
223 224 219 210 210 214 216 217 220 225 229 234 239 241 244 246 249 252 254 257 259 261 263 265 268 270 271 273 274 274 274 276 277 272 273 276 280 277 276 275 274 281 284
215 208 202 204 211 219 225 228 228 231 236 240 242 244 247 248 248 250 254 256 256 257 259 262 264 266 269 271 268 268 273 277 276 276 274 270 274 287 285 274 278 278 278
210 203 199 205 214 223 232 240 247 249 251 252 250 249 250 251 253 253 256 260 264 265 264 260 258 262 265 268 276 274 274 271 273 276 275 276 280 279 283 284 274 279 285
213 202 200 203 211 225 239 249 255 258 261 263 260 254 253 256 259 260 259 258 260 264 265 265 266 265 262 264 272 278 277 277 278 280 283 283 281 281 275 284 285 287 288
201 195 196 205 217 232 241 243 247 249 252 257 261 260 257 257 259 264 266 266 266 265 262 259 258 258 264 270 273 276 278 274 276 282 283 279 278 280 283 284 286 288 293
190 189 193 203 215 220 223 226 233 242 249 256 264 268 266 263 263 266 269 271 272 270 267 267 260 256 257 258 260 269 274 267 275 272 275 273 279 282 288 282 286 290 294
183 185 194 201 209 213 224 235 245 252 259 264 269 273 274 273 272 271 270 271 271 271 268 259 255 254 256 257 257 258 261 260 267 270 273 268 271 272 274 282 291 295 288
179 182 189 200 210 225 242 253 258 260 262 267 270 271 273 274 274 273 272 271 271 270 268 268 266 264 262 260 259 257 260 264 266 276 272 267 268 270 269 270 275 281 284
176 181 190 199 214 233 251 259 263 266 268 270 270 269 270 271 273 273 273 272 270 269 269 268 267 267 268 268 269 270 270 273 275 279 279 277 275 276 282 276 270 276 278
181 185 190 201 218 237 252 261 268 270 269 267 266 268 271 274 275 277 277 275 273 271 269 269 269 269 271 272 272 272 275 277 283 289 289 283 288 293 291 286 283 285 286
186 191 200 209 222 236 247 259 266 266 265 265 265 270 275 278 282 285 284 283 283 281 278 274 271 271 270 270 272 273 276 280 293 306 297 289 285 290 293 293 292 300 299
194 197 204 216 226 231 239 254 259 257 258 261 267 270 273 279 285 288 286 287 292 289 277 270 268 267 269 272 272 274 266 252 283 300 286 278 275 281 290 298 303 301 301
202 208 213 222 229 234 242 252 256 253 254 257 261 265 270 276 280 279 275 276 285 279 271 265 260 256 256 247 268 339 188 199 202 275 314 328 310 296 290 315 323 331 312
210 217 222 224 228 233 242 249 252 253 254 256 260 265 273 280 285 281 270 253 253 240 208 174 145 126 113 104 103 100 98 92 73 55 63 59 10 9 0 337 323 320 329
219 225 230 233 237 241 245 250 254 254 254 256 260 266 274 281 281 272 245 210 197 172 144 141 129 125 115 108 99 87 76 66 56 38 22 10 360 348 340 331 322 313 302
226 230 236 241 243 246 247 250 252 253 252 256 261 264 269 272 254 223 194 177 164 152 149 133 119 109 101 84 71 62 44 27 17 3 352 344 331 327 319 311 308 311 314
233 236 238 240 239 239 239 241 246 251 252 255 259 260 260 242 222 199 176 169 161 144 129 119 113 95 84 69 43 23 12 2 353 344 333 325 317 309 307 302 302 303 304
239 240 247 244 240 239 238 239 243 248 252 257 253 249 240 215 200 183 170 163 154 141 134 128 105 86 72 39 19 1 354 343 339 336 327 323 320 319 322 318 315 311 305
228 228 232 237 234 232 234 238 242 244 252 256 244 235 215 200 187 173 166 163 153 150 145 114 80 50 40 27 20 10 0 356 354 347 336 328 321 320 323 327 323 314 304
212 217 230 238 234 232 235 236 239 248 258 251 232 214 197 187 173 170 168 167 164 160 149 130 54 9 359 8 13 11 11 7 358 346 332 326 321 316 316 317 321 322 325
206 217 230 233 232 232 234 235 241 247 254 237 215 198 189 178 174 178 178 175 176 179 192 219 276 305 323 345 355 3 1 356 350 342 333 329 325 326 324 326 320 326 331
218 235 235 238 241 240 238 239 242 245 252 218 200 193 183 179 185 186 188 191 199 213 232 251 267 282 302 315 331 340 345 347 343 335 328 327 325 320 314 299 292 301 301
231 237 238 241 244 240 235 238 240 243 224 205 198 191 185 189 191 196 202 211 222 235 250 262 275 284 293 299 308 316 324 329 328 325 322 320 314 306 295 286 285 287 290
249 244 246 248 245 241 236 242 245 224 208 203 196 191 194 199 204 210 216 224 233 242 251 260 268 277 281 282 293 299 305 308 309 311 311 309 303 297 292 288 286 287 288
260 249 244 243 242 244 240 243 230 218 207 202 198 199 207 209 213 218 224 231 238 248 252 259 265 270 275 282 292 297 298 301 302 306 306 304 299 293 288 285 283 284 284
Wind_Speed_850mb
28 28 30 37 38 38 37 38 40 42 45 46 45 47 55 53 50 49 51 49 50 50 52 52 51 52 54 53 54 57 57 57 57 60 65 66 63 60 60 62 65 67 68
36 36 36 42 42 40 39 39 40 42 44 47 47 48 48 49 48 48 51 55 62 62 60 56 54 55 58 59 63 66 67 66 64 69 68 66 65 67 64 65 71 72 73
39 34 40 43 41 37 36 37 38 40 41 44 47 51 56 60 58 54 53 53 54 57 59 59 57 55 55 57 62 63 61 65 70 70 64 33 37 43 41 44 51 58 60
41 38 39 40 39 37 37 37 40 44 47 48 49 49 48 48 49 51 55 56 57 56 54 53 52 51 47 42 38 39 48 56 61 62 65 69 68 66 53 46 42 47 54
42 42 38 35 32 31 31 35 38 41 44 47 46 50 52 52 52 51 49 47 49 54 56 56 56 53 48 44 41 41 40 39 38 42 45 51 55 54 63 60 53 55 60
47 43 38 33 29 29 31 30 29 28 26 24 23 23 27 34 40 45 48 50 53 54 54 51 47 50 47 47 46 45 45 40 35 45 43 46 47 47 50 57 61 61 61
58 50 40 32 28 25 24 23 22 22 21 20 20 20 21 22 24 26 29 31 32 34 37 39 42 44 44 45 45 45 44 41 41 48 49 49 42 41 44 51 54 57 57
56 48 39 32 27 24 21 20 22 24 26 27 27 28 28 28 29 30 31 32 32 31 30 35 38 38 40 40 41 39 40 43 48 49 49 49 47 48 46 45 47 55 60
56 48 38 30 26 21 20 21 22 23 25 27 28 30 31 32 31 32 33 34 35 37 38 37 37 38 40 40 39 39 41 46 46 51 43 45 48 46 47 44 47 45 50
53 45 37 30 23 20 19 18 19 20 21 22 23 25 25 26 28 29 30 31 32 33 34 35 36 36 37 37 39 41 42 45 46 46 44 44 45 43 33 34 33 39 41
53 44 35 27 23 19 17 17 17 18 19 19 19 20 20 21 22 24 25 27 28 29 31 31 32 32 32 33 34 34 35 35 34 34 34 32 34 28 25 27 30 32 34
48 40 33 27 23 20 18 17 18 19 20 20 19 19 20 21 22 23 23 24 26 28 27 27 27 28 29 29 29 29 26 22 19 21 19 17 18 20 22 25 27 26 34
43 39 35 30 25 22 20 18 19 20 21 21 20 20 20 20 21 21 20 20 21 21 20 19 19 18 17 17 17 17 17 12 8 8 14 13 14 15 17 17 24 20 21
45 39 35 30 26 24 22 20 20 21 21 21 20 20 21 21 22 22 20 18 15 10 8 8 7 6 6 6 3 3 4 6 4 5 8 5 6 8 11 9 10 13 16
44 42 39 34 32 31 27 23 22 21 21 21 21 21 21 21 21 20 17 15 12 7 5 5 6 8 9 10 11 11 11 8 5 5 5 3 3 5 8 10 12 12 13
48 44 39 36 35 34 30 26 25 23 23 22 21 20 20 21 18 14 10 10 9 7 10 11 12 15 17 17 15 16 13 11 10 9 10 11 13 13 14 16 17 16 16
49 46 44 40 36 35 32 29 27 27 26 24 23 22 21 17 12 10 10 11 11 12 12 14 16 16 17 18 14 12 10 9 9 9 10 11 13 15 16 17 17 18 17
44 42 41 38 37 36 35 33 30 27 27 27 26 24 19 14 13 13 14 15 15 15 16 15 14 13 14 13 11 10 10 10 9 10 12 14 16 18 16 18 19 19 18
34 33 32 32 34 35 35 32 31 29 29 29 26 23 17 16 17 17 19 19 19 17 13 13 11 8 8 7 6 7 7 8 9 10 12 13 15 19 21 19 19 17 16
31 28 26 28 31 31 32 32 30 29 28 28 25 22 20 20 21 22 22 23 18 15 11 7 5 5 6 7 8 9 8 8 9 11 13 15 16 17 17 17 15 13 13
28 23 21 20 22 27 29 30 29 27 23 24 24 23 24 24 27 27 24 20 17 13 7 3 2 4 5 8 10 10 11 11 10 10 12 13 12 13 13 12 10 9 8
29 23 21 20 22 26 28 29 29 25 24 25 25 27 29 32 30 26 23 20 15 10 6 3 3 4 5 7 11 12 11 10 12 13 14 15 15 13 11 10 9 9 10
24 22 22 21 22 26 28 29 27 28 27 28 30 31 34 32 28 26 22 18 13 10 9 8 8 7 7 8 11 13 14 15 15 16 16 17 14 13 11 10 11 12 14
26 25 26 25 23 25 28 28 30 32 29 33 34 36 36 32 31 27 23 19 16 13 13 12 11 11 10 11 12 13 15 17 19 19 18 18 16 14 14 15 17 18 20
28 30 29 26 24 25 27 28 28 28 34 36 38 38 35 33 29 26 24 21 19 18 17 16 15 14 13 14 14 14 15 17 19 19 20 20 20 20 20 21 22 24 26
28 34 33 31 28 27 28 28 29 32 35 39 41 38 36 34 32 29 27 24 23 22 20 19 19 17 16 15 15 16 18 20 21 22 23 23 24 25 27 28 29 30 32
Wind_Direction_850mb
212 212 209 212 213 217 215 218 220 224 230 234 236 237 245 251 255 256 258 261 262 261 263 268 269 270 271 275 275 278 279 279 280 279 279 277 273 271 273 278 279 281 284
223 224 219 210 210 214 216 217 220 225 229 234 239 241 244 246 249 252 254 257 259 261 263 265 268 270 271 273 274 274 274 276 277 272 273 276 280 277 276 275 274 281 284
215 208 202 204 211 219 225 228 228 231 236 240 242 244 247 248 248 250 254 256 256 257 259 262 264 266 269 271 268 268 273 277 276 276 274 270 274 287 285 274 278 278 278
210 203 199 205 214 223 232 240 247 249 251 252 250 249 250 251 253 253 256 260 264 265 264 260 258 262 265 268 276 274 274 271 273 276 275 276 280 279 283 284 274 279 285
213 202 200 203 211 225 239 249 255 258 261 263 260 254 253 256 259 260 259 258 260 264 265 265 266 265 262 264 272 278 277 277 278 280 283 283 281 281 275 284 285 287 288
201 195 196 205 217 232 241 243 247 249 252 257 261 260 257 257 259 264 266 266 266 265 262 259 258 258 264 270 273 276 278 274 276 282 283 279 278 280 283 284 286 288 293
190 189 193 203 215 220 223 226 233 242 249 256 264 268 266 263 263 266 269 271 272 270 267 267 260 256 257 258 260 269 274 267 275 272 275 273 279 282 288 282 286 290 294
183 185 194 201 209 213 224 235 245 252 259 264 269 273 274 273 272 271 270 271 271 271 268 259 255 254 256 257 257 258 261 260 267 270 273 268 271 272 274 282 291 295 288
179 182 189 200 210 225 242 253 258 260 262 267 270 271 273 274 274 273 272 271 271 270 268 268 266 264 262 260 259 257 260 264 266 276 272 267 268 270 269 270 275 281 284
176 181 190 199 214 233 251 259 263 266 268 270 270 269 270 271 273 273 273 272 270 269 269 268 267 267 268 268 269 270 270 273 275 279 279 277 275 276 282 276 270 276 278
181 185 190 201 218 237 252 261 268 270 269 267 266 268 271 274 275 277 277 275 273 271 269 269 269 269 271 272 272 272 275 277 283 289 289 283 288 293 291 286 283 285 286
186 191 200 209 222 236 247 259 266 266 265 265 265 270 275 278 282 285 284 283 283 281 278 274 271 271 270 270 272 273 276 280 293 306 297 289 285 290 293 293 292 300 299
194 197 204 216 226 231 239 254 259 257 258 261 267 270 273 279 285 288 286 287 292 289 277 270 268 267 269 272 272 274 266 252 283 300 286 278 275 281 290 298 303 301 301
202 208 213 222 229 234 242 252 256 253 254 257 261 265 270 276 280 279 275 276 285 279 271 265 260 256 256 247 268 339 188 199 202 275 314 328 310 296 290 315 323 331 312
210 217 222 224 228 233 242 249 252 253 254 256 260 265 273 280 285 281 270 253 253 240 208 174 145 126 113 104 103 100 98 92 73 55 63 59 10 9 0 337 323 320 329
219 225 230 233 237 241 245 250 254 254 254 256 260 266 274 281 281 272 245 210 197 172 144 141 129 125 115 108 99 87 76 66 56 38 22 10 360 348 340 331 322 313 302
226 230 236 241 243 246 247 250 252 253 252 256 261 264 269 272 254 223 194 177 164 152 149 133 119 109 101 84 71 62 44 27 17 3 352 344 331 327 319 311 308 311 314
233 236 238 240 239 239 239 241 246 251 252 255 259 260 260 242 222 199 176 169 161 144 129 119 113 95 84 69 43 23 12 2 353 344 333 325 317 309 307 302 302 303 304
239 240 247 244 240 239 238 239 243 248 252 257 253 249 240 215 200 183 170 163 154 141 134 128 105 86 72 39 19 1 354 343 339 336 327 323 320 319 322 318 315 311 305
228 228 232 237 234 232 234 238 242 244 252 256 244 235 215 200 187 173 166 163 153 150 145 114 80 50 40 27 20 10 0 356 354 347 336 328 321 320 323 327 323 314 304
212 217 230 238 234 232 235 236 239 248 258 251 232 214 197 187 173 170 168 167 164 160 149 130 54 9 359 8 13 11 11 7 358 346 332 326 321 316 316 317 321 322 325
206 217 230 233 232 232 234 235 241 247 254 237 215 198 189 178 174 178 178 175 176 179 192 219 276 305 323 345 355 3 1 356 350 342 333 329 325 326 324 326 320 326 331
218 235 235 238 241 240 238 239 242 245 252 218 200 193 183 179 185 186 188 191 199 213 232 251 267 282 302 315 331 340 345 347 343 335 328 327 325 320 314 299 292 301 301
231 237 238 241 244 240 235 238 240 243 224 205 198 191 185 189 191 196 202 211 222 235 250 262 275 284 293 299 308 316 324 329 328 325 322 320 314 306 295 286 285 287 290
249 244 246 248 245 241 236 242 245 224 208 203 196 191 194 199 204 210 216 224 233 242 251 260 268 277 281 282 293 299 305 308 309 311 311 309 303 297 292 288 286 287 288
260 249 244 243 242 244 240 243 230 218 207 202 198 199 207 209 213 218 224 231 238 248 252 259 265 270 275 282 292 297 298 301 302 306 306 304 299 293 288 285 283 284 284